Tracking 18945 objects as of 20-Jan-2018
HD Live streaming from Space Station
objects crossing your sky now

FENGYUN 1C DEB

Track FENGYUN 1C DEB now!
10-day predictions


NORAD ID: 30856
Int'l Code: 1999-025AWS
Perigee: 772.2 km
Apogee: 982.7 km
Inclination: 98.2 °
Period: 102.4 minutes
Semi major axis: 7248 km
RCS: 0.0124 m2 (small)
Launch date: May 10, 1999
Source: People's Republic of China (PRC)
Launch site: Taiyaun Space Center, China (TSC)

Note: This is SATELLITE DEBRIS
aabbcc
Your satellite tracking list
Your tracking list is empty




NASA's NSSDC Master Catalog

Two Line Element Set (TLE):
1 30856U 99025AWS 18020.44932358  .00001272  00000-0  71641-3 0  9990
2 30856  98.2372  20.6196 0145190 320.0374 196.8838 14.06799296558484
Source of the keplerian elements: AFSPC